EW6122 Weather Reports


time (UTC)temp
C
wind
direction
speed
KPH
gust
KPH
rain 1hr
cm
rain 24hr
cm
rain mn
cm
humidity
%
barometer
mb
20260502123043 10 142 3.2 4.8 0.00 0.08 0.08 89 1009.9
20260502123033 10 142 1.6 4.8 0.00 0.08 0.08 89 1010.0
20260502121540 8 150 0.0 4.8 0.00 0.08 0.08 93 1010.1
20260502121532 8 0 0.0 4.8 0.00 0.08 0.08 92 1010.2
20260502114531 8 0 1.6 8.0 0.03 0.08 0.08 94 1010.6
20260502114508 8 161 1.6 8.0 0.03 0.08 0.08 94 1010.3
20260502113040 8 105 1.6 3.2 0.05 0.08 0.08 95 1010.1
20260502113032 8 105 1.6 3.2 0.05 0.08 0.08 94 1010.3
20260502111540 8 73 1.6 6.4 0.05 0.08 0.08 94 1009.9
20260502111532 8 0 1.6 6.4 0.05 0.08 0.08 94 1010.1
20260502110036 8 253 1.6 9.7 0.05 0.08 0.08 94 1010.1
20260502110033 8 304 1.6 11.3 0.05 0.08 0.08 94 1010.3
20260502104541 8 246 1.6 4.8 0.03 0.05 0.05 93 1010.6
20260502104533 8 246 0.0 4.8 0.03 0.05 0.05 94 1010.3
20260502103041 8 0 0.0 6.4 0.00 0.03 0.03 93 1010.7
20260502103038 8 246 0.0 6.4 0.00 0.03 0.03 93 1010.4
20260502101534 8 0 0.0 3.2 0.03 0.03 0.03 92 1009.8
20260502101530 8 347 0.0 3.2 0.03 0.03 0.03 93 1009.7
20260502091525 8 86 0.0 1.6 0.00 0.00 0.00 91 1009.6
20260502071529 8 205 0.0 3.2 0.00 0.00 0.00 86 1009.6
20260502071516 8 205 0.0 3.2 0.00 0.00 0.00 87 1009.4
20260502070033 8 205 0.0 4.8 0.00 0.00 0.00 85 1009.5
20260502070020 8 205 0.0 4.8 0.00 0.00 0.00 85 1009.2
20260502064537 8 185 0.0 3.2 0.00 0.00 0.00 82 1009.6
20260502064508 8 185 0.0 3.2 0.00 0.00 0.00 83 1009.4
20260502063033 9 0 1.6 3.2 0.00 0.00 0.00 78 1009.7
20260502063007 9 185 1.6 3.2 0.00 0.00 0.00 79 1009.5
20260502061534 9 174 0.0 6.4 0.00 0.00 0.00 77 1009.8
20260502061504 9 174 0.0 4.8 0.00 0.00 0.00 77 1009.6
20260502060032 10 0 1.6 11.3 0.00 0.00 0.00 75 1009.8
20260502060002 10 151 1.6 9.7 0.00 0.00 0.00 76 1009.6
20260502054604 10 184 0.0 6.4 0.00 0.00 0.00 75 1009.8
20260502054530 10 0 0.0 6.4 0.00 0.00 0.00 74 1010.0
20260502053059 10 136 1.6 6.4 0.00 0.00 0.00 75 1009.6
20260502053030 10 130 1.6 8.0 0.00 0.00 0.00 75 1009.8
20260502051555 10 187 0.0 0.0 0.00 0.00 0.00 74 1009.6
20260502051530 10 0 0.0 0.0 0.00 0.00 0.00 73 1009.8
20260502050054 10 170 0.0 0.0 0.00 0.00 0.00 73 1009.6
20260502050031 10 0 0.0 0.0 0.00 0.00 0.00 72 1009.9
20260502044552 10 130 0.0 0.0 0.00 0.00 0.00 72 1009.7
20260502044532 10 0 0.0 0.0 0.00 0.00 0.00 72 1010.0
20260502043051 10 171 0.0 0.0 0.00 0.00 0.00 76 1009.8
20260502043030 10 0 0.0 0.0 0.00 0.00 0.00 74 1010.0
20260502041550 10 170 0.0 3.2 0.00 0.00 0.00 71 1009.7
20260502041536 10 0 0.0 3.2 0.00 0.00 0.00 71 1010.0
20260502040047 10 170 0.0 1.6 0.00 0.00 0.00 70 1009.7
20260502040032 10 0 0.0 1.6 0.00 0.00 0.00 69 1009.9
20260502034548 10 170 0.0 4.8 0.00 0.00 0.00 69 1009.7
20260502034532 10 170 0.0 4.8 0.00 0.00 0.00 69 1010.0
20260502033048 10 184 0.0 4.8 0.00 0.00 0.00 72 1009.9
20260502033031 10 0 0.0 4.8 0.00 0.00 0.00 71 1010.2
20260502031546 11 184 0.0 3.2 0.00 0.00 0.00 69 1009.8
20260502031531 11 0 0.0 3.2 0.00 0.00 0.00 68 1010.1
20260502030051 11 184 0.0 3.2 0.00 0.00 0.00 67 1009.9
20260502030033 11 0 0.0 3.2 0.00 0.00 0.00 67 1010.1
20260502024550 10 193 1.6 4.8 0.00 0.00 0.00 67 1009.9
20260502024535 11 193 1.6 4.8 0.00 0.00 0.00 67 1010.1
20260502023050 11 195 0.0 4.8 0.00 0.00 0.00 64 1009.9
20260502023032 11 195 0.0 4.8 0.00 0.00 0.00 64 1010.2
20260502021530 11 192 3.2 14.5 0.00 0.00 0.00 62 1010.1
20260502020038 12 198 1.6 8.0 0.00 0.00 0.00 62 1009.8
20260502020032 12 198 1.6 8.0 0.00 0.00 0.00 62 1010.1
20260502014536 12 206 3.2 12.9 0.00 0.00 0.00 60 1009.9
20260502014534 12 229 4.8 16.1 0.00 0.00 0.00 60 1010.2
20260502013032 12 211 1.6 9.7 0.00 0.00 0.00 58 1009.9
20260502013027 12 194 1.6 9.7 0.00 0.00 0.00 58 1009.6
20260502011553 13 150 1.6 11.3 0.00 0.00 0.00 54 1009.8
20260502011527 13 145 1.6 8.0 0.00 0.00 0.00 54 1009.5
20260502010051 13 159 3.2 8.0 0.00 0.00 0.00 51 1009.2
20260502010031 13 163 1.6 9.7 0.00 0.00 0.00 50 1009.5
20260502004601 13 194 0.0 9.7 0.00 0.00 0.00 51 1009.1
20260502004550 13 194 1.6 9.7 0.00 0.00 0.00 51 1009.3
20260502003041 13 167 1.6 8.0 0.00 0.00 0.00 48 1008.9
20260502003032 13 146 1.6 9.7 0.00 0.00 0.00 48 1009.1
20260502001541 13 178 4.8 27.4 0.00 0.00 0.00 46 1008.5
20260502001532 13 161 3.2 9.7 0.00 0.00 0.00 45 1008.8
20260502000049 13 150 3.2 9.7 0.00 0.00 0.00 48 1008.4
20260502000032 13 150 3.2 9.7 0.00 0.00 0.00 47 1008.7
20260501234537 14 221 0.0 8.0 0.00 0.00 0.00 41 1008.5
20260501234534 14 221 0.0 8.0 0.00 0.00 0.00 42 1008.3
20260501233036 14 235 0.0 8.0 0.00 0.00 0.00 45 1008.1
20260501233034 14 235 1.6 8.0 0.00 0.00 0.00 44 1008.3
20260501231539 14 0 0.0 0.0 0.00 0.00 0.00 45 1008.0
20260501230053 15 269 0.0 0.0 0.00 0.00 0.00 41 1007.7
20260501230030 15 0 0.0 0.0 0.00 0.00 0.00 44 1007.9
20260501224547 15 232 1.6 12.9 0.00 0.08 0.00 42 1007.7
20260501224532 15 0 1.6 12.9 0.00 0.08 0.00 41 1008.0
20260501223049 16 233 0.0 0.0 0.00 0.08 0.00 37 1007.6
20260501223032 16 0 0.0 0.0 0.00 0.08 0.00 37 1007.9
20260501221545 16 220 0.0 0.0 0.00 0.08 0.00 37 1007.6
20260501221533 16 0 0.0 0.0 0.00 0.08 0.00 36 1007.8
20260501220044 16 265 0.0 3.2 0.00 0.08 0.00 38 1007.6
20260501220041 16 0 0.0 3.2 0.00 0.08 0.00 38 1007.9
20260501214540 15 193 3.2 6.4 0.00 0.08 0.00 41 1007.7
20260501214533 15 193 1.6 6.4 0.00 0.08 0.00 40 1007.9
20260501213054 16 237 1.6 17.7 0.00 0.08 0.00 39 1007.8
20260501213036 16 240 1.6 17.7 0.00 0.08 0.00 38 1008.0
20260501211537 16 175 1.6 6.4 0.00 0.08 0.00 40 1007.7
20260501211532 16 175 3.2 8.0 0.00 0.08 0.00 39 1008.0
20260501210033 15 290 1.6 11.3 0.00 0.08 0.00 37 1007.8
20260501210029 15 301 0.0 11.3 0.00 0.08 0.00 36 1008.0
20260501204532 17 269 0.0 14.5 0.00 0.08 0.00 36 1007.8
20260501203032 16 302 3.2 19.3 0.00 0.08 0.00 37 1007.6
20260501203030 16 311 3.2 19.3 0.00 0.08 0.00 36 1007.8
20260501201532 16 248 9.7 17.7 0.00 0.08 0.00 35 1007.9
20260501200043 16 259 3.2 12.9 0.00 0.08 0.00 38 1007.6
20260501200029 16 236 1.6 12.9 0.00 0.08 0.00 37 1007.8
20260501194545 16 199 6.4 22.5 0.00 0.08 0.00 37 1007.9
20260501194532 16 221 8.0 22.5 0.00 0.08 0.00 36 1008.1
20260501193039 15 233 3.2 16.1 0.00 0.08 0.00 37 1007.8
20260501193036 16 225 3.2 16.1 0.00 0.08 0.00 37 1008.0
20260501191539 16 259 9.7 19.3 0.00 0.08 0.00 38 1008.0
20260501191534 16 202 8.0 20.9 0.00 0.08 0.00 37 1008.3
20260501190049 16 228 6.4 20.9 0.00 0.08 0.00 38 1008.4
20260501190035 16 217 4.8 20.9 0.00 0.08 0.00 39 1008.2
20260501184536 15 288 9.7 19.3 0.00 0.08 0.00 35 1008.9
20260501183037 15 311 0.0 0.0 0.00 0.08 0.00 38 1008.6
20260501183030 16 0 0.0 0.0 0.00 0.08 0.00 37 1008.9
20260501181531 15 287 0.0 0.0 0.00 0.08 0.00 37 1008.5
20260501180049 14 254 0.0 0.0 0.00 0.08 0.00 37 1008.6
20260501180030 14 0 0.0 0.0 0.00 0.08 0.00 36 1009.0
20260501174615 15 240 0.0 0.0 0.00 0.08 0.00 37 1008.7
20260501174529 15 0 0.0 0.0 0.00 0.08 0.00 37 1009.1
20260501173057 15 269 0.0 0.0 0.00 0.08 0.00 39 1008.7
20260501173031 15 0 0.0 0.0 0.00 0.08 0.00 38 1009.1
20260501171548 15 227 0.0 0.0 0.00 0.08 0.00 37 1008.9
20260501171532 15 0 0.0 0.0 0.00 0.08 0.00 37 1009.1
20260501170057 15 321 0.0 0.0 0.00 0.08 0.00 37 1009.1
20260501170032 15 0 0.0 0.0 0.00 0.08 0.00 36 1009.2
20260501164552 15 355 0.0 0.0 0.00 0.13 0.00 40 1009.0
20260501164532 14 0 0.0 0.0 0.00 0.13 0.00 40 1009.2
20260501163039 13 250 0.0 0.0 0.00 0.13 0.00 39 1009.2
20260501163029 13 0 0.0 0.0 0.00 0.13 0.00 38 1009.4
20260501161545 13 338 12.9 22.5 0.00 0.13 0.00 41 1009.1
20260501161530 13 279 12.9 22.5 0.00 0.13 0.00 40 1009.4
20260501160042 13 5 8.0 29.0 0.00 0.13 0.00 39 1009.4
20260501160033 14 268 9.7 29.0 0.00 0.13 0.00 39 1009.6
20260501154607 13 266 9.7 17.7 0.00 0.13 0.00 47 1009.5
20260501154552 14 242 8.0 17.7 0.00 0.13 0.00 39 1009.6
20260501153046 13 252 3.2 19.3 0.00 0.13 0.00 45 1009.6
20260501153030 13 254 4.8 19.3 0.00 0.13 0.00 45 1009.8
20260501151532 13 277 4.8 22.5 0.00 0.13 0.00 47 1009.7
20260501151529 13 285 4.8 22.5 0.00 0.13 0.00 46 1009.8
20260501150057 12 313 4.8 24.1 0.00 0.13 0.00 47 1009.9
20260501150043 12 309 6.4 24.1 0.00 0.13 0.00 46 1010.0
20260501144547 12 259 9.7 22.5 0.00 0.13 0.00 46 1009.9
20260501144531 12 221 9.7 22.5 0.00 0.13 0.00 45 1009.9
20260501143052 12 323 4.8 22.5 0.00 0.13 0.00 48 1009.8
20260501143039 12 284 3.2 22.5 0.00 0.13 0.00 47 1009.9
20260501141559 11 311 9.7 20.9 0.00 0.13 0.00 49 1010.0
20260501141541 11 294 8.0 20.9 0.00 0.13 0.00 50 1009.9